Wind_Speed
67 67 67 67 68 68 68 68 69 69 69 70 70 70 70 70 71 71 71 72 72 73 74 74 75 75 76 77 77 78 79 79 79 79 79 79 79 79 79 79 79 79 79 80 81 82 84 85 86 86 86 85 84 84 83 83 82 82 82 83 84 84 84 84 84 85 86 87 89 92 94 96 96 97 97 97 98 100 101 102 103 103 103 103 103 103 103 103
66 66 66 66 67 67 67 68 68 69 69 69 69 69 69 69 69 70 70 70 71 71 72 72 73 74 74 75 76 77 77 77 77 77 78 78 78 78 78 78 78 78 78 79 80 80 82 83 85 85 85 85 84 84 84 83 83 83 83 83 83 82 82 81 81 81 82 84 86 88 90 92 93 94 95 94 94 97 97 98 100 101 101 102 102 103 103 104
65 65 66 66 66 66 67 67 68 68 68 68 68 68 67 67 67 67 67 68 68 68 69 69 70 71 72 73 73 74 74 75 75 75 76 76 76 76 76 76 76 76 77 77 78 79 79 81 82 83 83 83 83 83 83 83 83 83 83 83 83 82 81 80 79 79 79 81 82 84 86 88 89 91 92 93 94 95 96 96 96 97 97 98 99 99 100 101
65 65 65 65 66 66 66 67 67 66 66 66 65 65 65 64 64 64 64 65 65 65 66 66 67 68 69 70 70 71 72 72 72 73 74 74 74 74 74 74 74 74 74 75 76 77 77 78 79 80 80 81 81 82 82 83 83 83 83 83 82 81 80 79 77 77 77 78 79 80 82 83 85 86 88 89 92 92 93 95 94 95 95 95 96 96 97 97
64 64 65 65 65 66 66 66 65 64 64 63 63 62 62 61 61 61 62 62 62 63 63 64 65 65 66 67 68 68 69 69 69 71 72 72 72 72 72 72 72 72 72 73 74 74 75 76 76 77 77 77 78 79 79 81 82 82 83 82 81 79 78 77 76 76 76 76 76 77 78 79 81 82 83 84 86 87 88 90 90 91 92 93 94 94 94 93
64 64 64 64 64 64 63 63 62 61 60 60 60 59 59 59 59 59 59 60 61 61 62 62 63 64 64 65 66 66 66 66 67 69 70 70 70 70 70 70 69 69 70 70 71 72 73 73 74 74 74 75 75 76 76 78 79 80 81 80 79 78 77 76 75 75 75 75 75 75 76 76 77 77 78 79 80 81 82 84 85 85 87 88 89 89 89 88
63 63 63 62 61 61 60 59 58 58 57 57 57 57 57 57 57 57 58 59 59 60 60 61 62 62 63 63 64 64 64 64 66 67 68 69 69 69 69 68 68 68 68 68 69 69 70 71 71 72 72 72 73 73 73 75 76 77 78 77 77 76 75 74 74 74 74 74 73 73 74 74 73 73 74 75 76 77 77 78 79 80 81 81 82 82 82 81
61 61 60 58 57 56 56 55 55 55 54 54 54 55 55 55 56 56 57 58 58 59 59 60 60 61 61 61 62 62 62 62 64 66 66 67 68 68 68 67 66 66 66 66 67 67 68 69 69 70 70 69 70 70 71 72 73 74 75 74 74 74 74 73 73 74 74 73 72 72 72 71 70 71 71 72 72 73 73 74 74 75 75 76 76 75 75 74
58 57 55 54 54 53 53 52 52 52 52 52 53 53 53 54 55 55 56 56 57 57 58 58 58 59 59 60 60 60 60 61 63 64 65 66 66 67 67 67 66 66 65 65 65 66 66 66 67 67 67 67 68 68 69 70 71 72 72 71 72 73 72 72 73 73 73 71 70 70 70 69 68 69 70 70 70 70 70 71 71 71 72 71 71 71 70 71
54 53 52 52 51 51 50 50 50 50 50 50 51 51 52 53 53 54 55 55 55 55 56 56 57 57 58 58 58 58 59 60 61 62 64 65 65 66 66 66 66 66 65 65 64 64 64 65 65 66 67 67 68 67 68 69 70 70 70 70 71 72 71 71 72 72 71 70 69 68 68 67 66 68 69 69 69 69 69 69 69 69 70 69 69 69 69 69
51 51 50 50 49 49 49 49 49 49 49 49 49 50 51 51 52 53 53 53 53 54 54 55 55 56 56 56 56 57 58 59 60 61 62 64 64 65 66 66 66 66 65 65 64 64 64 64 65 66 66 67 67 67 68 68 68 69 69 69 70 70 69 69 70 70 69 68 67 67 66 65 65 67 68 67 67 67 68 68 68 69 68 68 68 68 68 69
51 50 49 48 48 47 47 47 47 47 48 48 48 49 49 50 50 51 51 51 51 52 53 53 53 53 54 54 54 55 56 57 58 59 61 62 63 64 65 65 65 65 65 65 65 64 64 65 65 66 65 66 66 66 66 66 67 68 68 68 69 68 67 67 68 68 67 66 66 65 65 65 65 66 67 66 66 67 68 68 68 68 67 67 68 67 68 69
50 49 48 47 46 46 46 46 46 46 46 46 46 47 47 48 49 49 49 49 49 50 51 51 51 51 51 51 52 53 53 54 56 57 59 61 61 63 64 64 64 65 65 66 66 65 65 65 65 64 64 65 64 64 64 65 66 67 67 67 67 67 66 66 66 66 65 65 64 64 64 64 65 66 66 66 66 67 68 68 68 68 67 67 67 67 68 68
50 48 47 46 45 45 45 45 44 44 45 45 45 45 46 46 46 47 47 47 47 48 49 49 49 49 49 49 50 50 50 51 53 55 57 59 60 61 62 62 63 64 65 66 66 66 65 65 64 64 64 63 63 63 63 64 65 66 67 67 66 66 65 64 64 64 64 63 63 63 63 65 65 65 66 66 66 67 68 68 68 67 67 67 67 68 68 68
49 48 46 45 45 44 44 44 43 43 43 44 44 44 44 44 45 45 45 45 46 46 47 47 47 47 47 47 47 47 48 50 52 54 55 56 58 59 60 60 61 62 64 65 65 66 65 65 64 64 63 62 62 62 62 63 64 65 66 66 65 65 64 63 63 62 62 62 62 62 64 66 65 65 66 66 66 67 67 68 67 67 67 67 67 67 68 67
49 48 46 45 44 44 43 43 42 42 42 43 43 43 43 42 42 43 43 43 44 44 45 45 45 45 45 45 45 45 46 48 50 52 53 55 56 57 57 58 59 60 62 63 64 65 65 65 64 64 63 62 61 61 61 62 63 64 65 64 64 64 64 63 62 61 60 61 62 62 64 65 65 65 65 65 65 66 67 67 67 67 67 66 66 67 67 66
49 47 46 45 44 44 43 42 41 41 41 42 42 42 41 41 41 41 41 42 42 42 43 43 44 43 43 43 43 43 45 47 49 50 51 52 53 54 55 55 57 58 60 61 62 63 63 63 63 63 62 62 61 61 61 61 62 63 64 63 63 63 62 62 61 59 60 60 61 62 63 65 65 65 64 64 64 65 66 67 67 67 66 66 66 66 66 65
49 47 46 45 44 44 43 42 41 40 41 41 41 40 40 39 39 39 40 40 40 40 41 42 42 42 42 42 42 43 45 46 47 48 49 50 51 52 53 54 55 56 57 58 59 60 61 61 62 62 62 62 61 61 61 61 61 62 62 62 62 62 62 61 59 59 59 60 61 61 63 65 65 64 62 63 64 65 66 66 66 66 65 64 65 64 63 63
50 48 46 45 45 44 44 42 41 40 40 40 40 39 38 38 38 38 38 38 39 39 40 41 41 40 41 41 41 42 44 45 46 47 48 48 49 50 51 52 53 54 55 56 57 57 58 59 59 60 60 60 60 60 60 59 60 60 61 61 61 61 61 60 59 59 59 60 60 61 63 64 63 62 62 62 63 64 64 65 65 65 63 62 62 61 60 60
51 48 46 45 45 44 44 43 41 40 40 39 39 38 37 37 36 37 37 37 38 38 39 39 39 39 39 40 41 42 43 44 44 46 47 47 48 49 50 51 51 52 53 54 55 55 56 56 57 58 57 57 58 58 58 58 59 60 60 61 61 61 61 59 58 59 59 60 60 61 62 61 60 61 61 61 62 62 63 63 63 62 60 60 59 58 58 58
51 48 46 45 45 44 43 43 42 40 39 39 38 37 36 36 36 36 36 36 37 38 37 37 37 37 38 39 40 41 42 43 44 45 46 46 47 48 49 50 50 51 52 52 53 54 54 55 55 54 54 54 55 56 57 57 58 59 59 60 60 61 60 58 58 58 59 59 60 60 60 59 59 60 60 60 61 61 61 61 60 60 59 58 57 57 57 57
51 48 47 45 45 44 43 43 42 41 39 38 37 36 35 35 35 36 36 35 36 37 36 36 36 36 37 38 39 40 41 42 43 44 45 46 47 48 49 49 50 51 51 52 53 53 53 52 51 51 52 53 54 55 55 55 56 57 57 58 59 59 58 56 56 56 57 58 59 58 57 57 58 58 59 60 60 60 60 59 59 58 58 57 57 57 56 55
50 48 47 45 45 44 43 42 42 41 39 38 37 35 34 34 35 36 35 35 35 36 36 35 34 35 37 37 38 39 41 42 43 44 45 45 46 47 48 49 50 50 51 52 52 52 50 50 50 51 51 51 52 52 52 53 54 55 55 56 56 56 55 54 54 54 55 57 57 56 55 56 56 57 58 59 59 59 59 58 58 57 56 56 56 55 54 53
49 48 47 45 45 44 43 42 42 41 40 39 37 35 33 33 34 35 35 34 34 35 35 34 33 34 36 37 37 38 40 41 43 44 44 45 46 47 47 48 49 50 51 51 51 50 49 49 50 50 50 50 50 50 50 51 52 53 54 54 53 53 52 52 52 53 54 55 55 54 53 54 54 55 56 57 57 57 56 55 55 54 54 54 54 52 51 50
48 48 47 45 45 44 44 42 42 41 40 39 38 35 33 33 34 35 35 34 33 34 35 33 32 33 35 36 36 36 38 40 42 43 43 44 45 45 46 47 49 50 51 50 50 49 49 50 50 49 49 49 49 49 50 50 51 52 52 52 51 50 50 50 50 50 51 52 52 51 51 51 52 53 53 54 54 53 53 52 51 51 51 51 50 49 47 45
48 47 46 46 45 44 44 43 42 41 41 40 39 36 33 33 35 35 34 34 33 33 34 32 31 33 34 35 35 35 37 39 40 41 42 43 44 45 46 48 49 49 49 49 49 49 50 50 49 49 49 49 49 49 49 49 50 50 50 50 49 48 48 48 48 47 48 49 49 48 47 49 50 50 50 50 50 50 49 49 48 48 48 48 47 46 44 42
47 47 46 46 45 45 44 44 43 41 41 41 40 37 35 34 36 35 34 35 33 32 33 32 31 32 33 35 35 34 35 37 38 40 41 42 43 44 46 47 48 48 48 48 48 49 50 49 48 48 49 49 49 48 48 48 48 48 48 48 47 46 46 46 45 45 45 46 45 45 44 45 47 46 46 47 47 47 47 46 46 46 46 46 45 43 41 38
47 47 46 46 46 45 44 44 43 42 41 42 41 39 36 35 36 36 35 35 34 32 32 32 31 31 32 34 35 34 34 36 37 39 40 41 43 44 45 47 48 48 48 48 48 48 48 48 48 48 49 49 49 48 48 48 47 47 47 46 46 45 44 44 43 43 43 42 42 42 41 41 43 43 43 43 44 44 43 43 43 43 44 44 44 42 39 36
46 47 47 47 46 46 46 44 43 43 42 42 42 40 37 36 37 37 36 37 35 33 32 31 31 31 32 34 34 34 34 34 36 38 38 40 43 44 46 47 47 47 48 48 48 48 48 48 48 49 49 49 49 48 48 47 47 47 46 45 45 43 42 42 41 41 41 39 39 40 38 37 40 41 41 40 40 40 40 40 40 41 42 41 41 39 37 34
46 47 48 48 47 47 46 44 43 44 44 43 42 41 39 37 38 38 38 39 38 35 33 32 32 32 33 34 34 34 34 34 35 36 37 40 43 44 45 46 46 47 48 48 48 48 49 49 49 49 50 50 49 48 48 48 47 46 46 45 44 43 42 41 41 41 39 37 38 39 36 36 40 42 41 39 39 39 39 39 39 39 39 38 38 37 35 32
46 47 48 49 48 48 47 45 44 45 45 44 43 42 40 39 38 38 40 42 40 37 34 33 32 33 34 35 35 34 34 34 35 35 36 39 41 43 44 45 46 48 49 49 48 49 49 49 50 50 50 50 49 49 48 48 47 46 46 45 44 43 42 41 41 40 38 38 39 39 36 37 43 44 41 39 40 40 40 40 40 40 39 39 38 36 35 33
47 47 48 49 49 49 47 46 46 46 45 45 44 42 42 40 38 40 44 45 41 38 37 35 34 34 34 35 35 34 34 34 35 35 35 38 40 42 44 45 46 48 49 49 49 49 49 50 50 50 50 50 49 49 48 48 48 47 47 46 44 44 43 41 41 40 39 41 40 39 38 40 44 45 41 41 42 41 42 42 42 41 40 40 38 37 36 34
47 48 49 50 50 49 48 47 48 47 46 46 45 43 43 40 38 43 48 47 42 39 39 37 36 35 35 35 35 35 34 34 34 35 35 37 39 41 42 43 45 47 48 48 48 48 49 49 50 50 50 50 50 49 49 49 49 49 48 46 45 46 45 42 42 42 42 44 43 41 41 42 45 46 44 44 44 44 44 44 43 42 41 40 39 38 37 35
47 49 49 50 51 50 49 49 49 48 48 47 46 44 42 39 41 48 51 47 43 41 40 39 38 36 36 35 35 35 34 33 34 35 36 36 37 39 41 43 44 46 48 48 47 48 48 49 50 50 50 50 50 50 50 51 51 50 48 48 48 48 47 45 45 45 46 47 45 43 43 43 45 47 47 47 46 46 45 44 43 42 42 41 40 39 38 36
48 49 50 51 52 51 51 51 50 50 50 49 47 45 42 41 46 51 52 48 44 42 41 41 40 38 37 36 35 35 34 34 35 36 36 37 37 38 40 41 44 46 47 47 48 48 49 50 51 50 50 51 51 51 51 51 52 51 50 49 49 49 48 48 47 47 48 48 46 45 44 45 47 48 48 47 47 47 46 45 44 43 42 41 40 39 39 37
49 50 51 52 53 53 53 53 52 51 51 50 48 44 42 45 50 52 52 48 45 43 43 43 41 40 38 37 36 35 34 35 36 36 36 36 38 39 39 39 41 43 45 46 48 48 49 50 50 50 50 50 50 50 51 51 52 51 50 50 50 50 49 49 48 49 49 48 48 47 47 47 48 49 49 49 48 48 47 46 45 43 42 41 41 40 39 39
50 51 51 52 53 53 54 54 53 51 51 51 48 44 45 49 51 52 52 49 46 45 45 44 42 41 40 39 38 36 36 36 36 36 35 36 38 39 39 39 39 41 43 44 46 47 48 50 50 50 50 50 50 51 50 51 51 51 50 51 51 50 49 49 49 49 49 49 49 48 48 48 49 50 50 49 49 48 48 47 46 45 44 43 42 41 40 40
51 51 52 52 53 54 54 54 53 52 51 50 48 47 49 51 52 52 52 51 48 47 46 45 43 42 41 41 40 38 37 36 36 36 37 37 38 38 39 40 40 40 40 42 44 45 46 48 49 49 50 50 50 51 50 50 51 51 51 51 51 50 49 50 49 49 48 49 49 49 48 48 49 50 50 50 49 48 47 47 46 45 45 45 44 43 42 41
52 51 52 52 53 54 55 54 53 53 51 50 49 50 52 53 53 53 53 52 50 48 46 45 44 43 43 43 41 39 38 37 36 36 38 38 37 38 40 41 41 41 40 40 41 42 43 46 47 48 48 49 49 49 50 49 50 51 51 50 50 49 50 50 49 49 49 49 48 48 48 48 49 50 51 50 49 47 45 44 43 42 41 43 43 43 43 43
52 52 52 52 52 53 55 54 54 53 51 51 52 53 54 55 55 54 53 52 51 48 46 45 44 45 44 44 43 41 40 38 37 37 38 38 38 39 40 42 42 42 42 41 40 40 42 43 45 45 45 47 48 48 48 49 49 49 50 49 49 49 49 49 49 48 49 48 48 48 47 48 50 51 51 49 48 47 43 41 41 40 40 42 42 43 44 45
52 52 53 52 52 53 54 54 54 53 52 52 53 54 55 56 56 55 54 53 52 50 47 46 45 45 45 46 45 43 42 41 40 40 40 39 40 40 41 41 42 43 43 43 42 42 42 42 43 44 43 44 45 45 46 47 47 47 47 48 48 48 48 48 47 47 47 47 47 47 47 49 50 51 50 49 48 46 43 41 41 41 43 45 46 46 46 46
51 52 53 53 53 53 54 54 54 54 53 53 53 54 56 57 57 55 54 53 53 51 50 48 47 47 47 47 47 45 44 43 42 42 42 41 41 41 42 42 42 43 45 45 45 45 45 44 44 43 42 42 42 43 43 44 44 45 45 46 46 46 46 46 46 47 47 47 47 47 48 50 51 51 51 51 49 47 46 44 43 44 46 48 49 48 48 48
50 51 52 52 53 53 53 54 55 55 54 53 54 56 56 57 57 56 54 53 53 52 52 51 50 49 49 49 49 48 47 46 45 45 44 43 42 42 42 43 44 44 45 46 47 48 48 47 45 43 43 43 43 43 42 41 42 43 42 43 43 44 44 45 46 47 48 48 48 48 49 50 51 51 51 52 51 50 49 48 48 49 50 50 49 49 48 48
45 46 47 48 49 50 51 52 54 54 54 54 55 56 57 57 58 57 55 54 53 53 53 53 52 51 51 51 51 50 49 48 47 47 46 44 44 43 42 43 45 44 44 45 47 50 51 50 47 46 46 46 45 44 42 42 42 42 42 43 43 43 44 44 46 47 47 47 48 49 50 51 52 52 52 52 52 52 52 51 51 51 50 49 49 48 48 47
39 40 41 42 43 44 46 47 49 50 51 53 54 56 57 58 58 58 56 54 54 54 55 55 55 54 53 53 52 51 50 50 49 48 47 46 45 43 43 43 45 45 45 44 46 49 52 51 49 48 49 49 48 46 45 45 45 45 45 45 45 45 45 46 46 47 47 46 48 49 51 52 53 53 52 53 53 53 52 51 51 50 47 47 47 47 47 47
36 36 37 37 37 39 41 42 43 45 46 48 50 53 55 57 59 59 58 56 55 56 56 56 56 56 55 54 54 53 52 51 51 50 49 48 46 44 44 44 44 45 45 45 46 47 50 51 51 51 52 53 52 50 49 49 49 48 48 47 47 47 48 47 47 47 46 46 48 50 51 53 54 53 53 54 53 54 53 53 52 51 49 49 49 49 48 48
33 34 34 34 34 34 35 37 38 40 42 43 45 47 50 54 57 59 59 58 57 57 58 58 58 57 56 56 55 54 53 53 52 51 49 48 47 46 45 45 44 44 45 46 47 46 48 50 51 53 55 56 55 54 53 52 51 50 49 49 49 48 49 49 49 48 47 47 50 52 52 53 54 54 55 55 55 55 55 54 53 53 53 53 53 52 51 50
29 29 30 31 32 32 32 32 33 35 37 39 41 42 45 48 52 56 58 59 59 59 59 59 58 58 57 56 56 55 54 54 53 52 50 49 48 47 46 46 46 45 45 46 47 47 48 48 50 53 55 57 57 57 56 55 53 52 52 51 51 50 50 50 51 51 50 51 53 53 53 54 55 56 56 56 56 56 56 56 55 54 55 55 55 54 53 53
26 26 25 26 28 29 28 28 29 31 32 34 36 37 39 43 46 50 54 57 58 59 59 59 59 59 58 57 56 55 55 54 54 53 52 51 50 49 48 48 47 46 45 46 47 48 49 49 49 52 54 56 57 57 58 57 56 55 55 54 54 54 53 53 53 53 54 56 56 56 57 57 57 58 59 59 59 58 58 57 56 56 56 56 56 56 55 55
26 25 23 22 22 24 24 24 24 26 28 29 31 33 35 38 41 44 48 51 55 57 59 60 60 59 59 58 57 56 55 55 54 54 54 53 52 51 50 49 48 47 47 46 47 48 49 50 50 51 53 54 55 57 58 58 58 58 58 58 57 57 57 57 56 56 57 58 59 59 60 60 60 61 61 61 61 60 60 59 59 58 58 58 59 58 57 56
25 25 24 21 20 19 19 19 20 22 23 24 26 29 31 34 37 40 43 46 49 54 57 60 61 61 60 59 58 57 56 56 56 55 55 54 54 52 52 51 50 49 48 48 48 49 49 50 51 52 52 52 54 56 57 58 59 59 60 60 60 60 60 60 60 60 60 61 61 62 63 63 63 63 63 63 63 63 62 61 60 59 58 59 60 58 57 58
24 23 22 21 19 17 15 15 16 18 18 20 22 25 27 30 34 36 39 42 45 49 54 58 60 61 61 60 59 59 58 57 57 56 56 55 55 54 54 53 52 51 50 50 49 49 50 50 51 52 52 52 54 56 56 57 57 58 59 60 62 63 63 63 63 64 64 64 63 64 64 65 65 65 65 66 66 65 64 63 61 60 59 59 59 58 58 59
Wind_Direction
270 271 271 271 271 271 270 270 270 270 269 269 268 267 266 265 264 263 262 261 259 258 257 256 255 254 253 253 252 252 252 252 252 252 252 252 251 251 250 250 249 249 249 248 248 248 248 249 249 249 250 250 251 251 251 251 252 252 252 252 253 253 253 253 253 253 253 253 253 253 254 254 255 256 257 257 258 258 258 259 259 260 261 262 263 264 265 266
271 271 271 271 271 271 271 271 270 270 270 269 268 268 267 265 264 263 262 261 259 258 257 256 255 254 253 252 252 251 251 251 251 251 251 251 251 251 250 250 249 249 249 248 248 248 248 248 249 249 249 250 250 251 251 252 252 252 252 253 253 253 254 254 254 254 255 255 254 254 254 255 255 256 257 257 258 259 259 259 259 260 261 262 263 264 265 265
272 272 272 272 272 272 271 271 271 271 270 269 268 267 266 265 264 263 262 260 259 258 257 256 255 254 253 252 251 250 250 250 250 250 250 250 250 250 250 249 249 249 248 248 248 248 248 248 248 249 249 249 250 250 251 252 252 252 252 253 253 254 254 254 255 255 255 255 255 255 256 256 256 256 257 257 258 259 260 260 261 262 262 263 263 264 264 265
273 273 273 273 273 273 272 272 271 271 270 269 268 267 266 265 264 263 262 260 259 258 257 256 255 254 253 252 251 250 249 249 249 250 250 249 249 249 249 249 249 248 248 248 248 248 248 248 248 248 248 249 249 250 251 251 252 252 253 253 253 254 254 255 255 255 255 256 256 256 256 256 257 257 257 258 259 259 260 261 261 262 263 264 264 265 266 267
274 274 274 274 274 273 273 272 271 271 270 269 268 267 266 265 264 263 262 261 260 258 257 256 255 254 253 252 251 250 249 248 248 249 249 249 248 248 248 248 248 247 247 247 247 247 247 248 248 248 248 249 249 250 250 251 252 252 253 253 254 254 255 255 255 255 255 256 256 256 257 257 257 258 258 259 260 260 261 262 262 262 263 264 265 265 266 267
275 275 275 275 274 274 273 272 271 270 269 268 267 266 265 265 264 263 262 261 260 259 258 257 256 254 253 252 251 250 249 248 247 247 247 247 247 247 247 247 247 247 247 246 247 247 247 247 248 248 248 248 249 249 250 251 251 252 252 253 253 254 254 255 255 255 255 255 256 256 257 258 259 259 260 261 261 262 262 262 263 263 264 264 265 266 267 267
277 276 276 275 274 273 272 271 270 269 268 267 267 266 266 265 265 264 263 262 261 260 258 257 256 255 253 252 251 250 248 247 247 246 246 246 247 247 247 246 246 246 246 246 246 246 247 247 248 248 248 248 249 249 249 250 251 251 252 252 253 253 254 254 254 254 255 255 256 257 258 259 260 261 261 262 262 263 263 263 264 264 264 265 265 266 267 268
277 276 275 275 274 273 272 270 269 268 267 267 267 266 266 266 265 264 263 262 261 260 259 257 256 255 253 252 251 250 248 247 246 246 245 245 245 246 246 246 246 246 246 246 246 246 246 246 247 248 248 248 249 249 249 250 250 251 251 252 252 253 253 253 253 254 254 255 256 258 259 260 261 262 262 262 262 263 263 264 264 264 265 265 266 267 267 268
277 276 275 274 273 272 271 270 269 268 267 267 267 267 266 266 266 265 264 263 261 260 259 257 256 255 253 252 251 250 248 247 246 246 245 245 244 245 245 245 245 245 245 245 245 245 246 246 246 247 247 247 247 248 248 249 249 250 251 251 252 252 252 253 253 254 255 256 257 258 259 260 261 262 262 262 263 263 264 264 264 265 265 266 267 267 268 268
277 276 275 274 273 272 271 269 269 268 267 267 267 267 267 266 266 265 264 262 261 260 259 258 256 255 254 252 251 250 249 247 246 246 245 245 244 244 244 244 244 244 244 244 245 245 245 245 245 245 245 246 246 246 247 248 249 250 250 251 251 252 252 253 254 255 255 256 257 258 259 260 261 261 262 262 263 264 264 264 264 265 265 266 267 267 268 268
277 276 275 274 273 272 270 269 269 268 268 267 267 267 267 267 266 265 263 262 261 260 259 258 257 255 254 252 251 250 249 248 247 246 246 245 244 243 243 243 243 244 244 244 244 244 244 244 244 244 244 245 246 246 247 248 249 250 250 251 251 252 252 253 254 255 256 256 257 258 259 259 260 261 261 262 263 263 263 263 264 265 266 267 267 267 267 267
278 277 275 274 273 272 271 270 269 269 269 268 268 268 268 267 266 265 264 263 262 261 260 258 257 256 254 252 251 249 248 247 247 246 245 245 244 243 243 243 243 243 244 244 244 243 243 244 244 244 245 245 246 246 247 249 249 250 251 251 252 252 253 253 254 255 256 257 257 258 259 259 259 260 260 261 262 262 263 263 264 265 266 266 266 266 267 267
278 277 275 274 273 272 271 271 270 270 269 269 268 268 268 267 266 265 264 264 263 262 260 259 257 255 254 252 250 249 248 247 246 246 245 244 244 243 243 242 242 243 243 243 243 243 243 244 244 245 245 245 246 247 247 248 249 250 251 251 252 253 253 253 254 255 256 257 257 258 258 258 258 258 259 260 260 261 262 263 264 265 265 265 266 266 267 268
279 277 275 274 273 272 272 272 271 270 270 270 269 269 269 268 267 266 266 265 264 262 260 259 257 255 253 252 250 249 248 246 246 245 244 244 243 243 243 242 242 242 242 243 243 244 244 244 244 245 245 246 246 247 247 248 249 250 251 251 252 253 253 254 254 255 256 257 257 257 257 257 257 258 258 259 260 261 262 263 264 264 264 265 265 266 267 268
278 276 274 274 273 273 273 273 272 271 271 270 270 270 269 268 267 267 267 266 264 262 260 259 257 255 253 251 250 248 247 245 244 244 244 243 243 243 242 242 242 242 242 242 243 243 244 244 244 245 245 246 246 247 247 248 249 250 251 252 253 253 254 254 254 255 256 257 257 257 257 257 257 258 258 259 260 261 262 263 263 263 264 265 266 266 267 268
277 275 274 274 274 275 274 273 272 272 271 271 271 271 270 269 268 268 268 266 264 262 260 258 256 255 253 251 250 248 246 245 244 243 243 243 242 242 242 242 242 242 242 242 243 243 244 244 245 245 246 246 247 247 248 248 250 251 252 252 253 253 254 254 254 255 256 256 257 257 258 258 258 258 258 259 260 261 262 262 262 263 264 265 265 266 267 268
275 274 273 274 275 276 275 274 273 272 272 272 272 272 271 270 270 269 268 266 264 261 259 258 256 255 253 251 249 247 246 244 243 243 242 242 242 242 242 241 241 241 242 242 243 243 244 244 245 245 246 246 247 247 248 248 249 250 252 252 253 254 254 254 254 255 255 255 256 257 257 258 258 258 259 260 261 261 261 262 262 263 263 264 265 266 267 268
273 273 272 273 276 277 276 275 274 272 272 272 272 272 272 271 271 270 268 266 263 260 259 257 256 255 253 251 249 247 245 244 243 242 242 242 241 241 241 241 241 241 241 242 242 243 244 244 244 245 245 246 246 247 247 248 249 251 252 253 253 254 254 254 254 254 254 254 255 255 256 257 258 260 260 260 260 260 261 262 262 263 263 264 265 267 268 269
271 272 271 272 275 277 277 276 274 273 272 272 272 273 273 272 271 270 268 266 262 260 258 257 257 255 254 252 249 247 245 244 243 242 242 241 240 240 240 240 240 240 241 241 242 242 243 243 244 244 245 245 246 247 248 249 250 251 251 252 252 253 253 253 254 254 254 254 254 254 255 257 259 260 260 260 260 261 261 262 262 263 264 265 266 267 268 268
269 270 271 272 274 277 277 276 274 272 272 272 272 273 273 273 272 271 268 265 262 259 258 257 256 255 254 252 249 247 246 244 242 241 241 240 240 239 239 239 239 239 240 240 241 241 242 242 243 244 245 246 246 247 247 247 248 248 249 250 251 252 252 253 253 254 254 254 254 254 256 257 259 259 260 260 260 261 261 262 263 264 265 265 266 266 267 267
267 268 270 271 273 275 276 275 274 272 272 271 272 273 273 273 272 271 268 265 262 259 257 256 256 255 254 252 250 248 246 244 242 241 240 239 239 238 238 238 238 239 239 240 240 240 241 241 242 243 244 244 244 244 245 245 246 247 248 249 250 251 252 253 253 254 254 255 255 255 256 257 258 258 259 260 260 261 261 262 263 264 265 265 265 265 266 266
265 266 269 271 272 274 275 274 274 272 272 271 271 272 273 273 272 270 268 265 262 260 258 256 255 255 254 252 250 247 245 244 242 240 239 238 238 238 238 238 238 238 238 239 239 240 240 241 242 242 242 242 243 244 244 245 246 246 247 248 249 251 252 253 253 254 254 255 255 256 256 256 257 258 258 259 260 261 261 262 263 263 264 265 265 264 265 265
264 265 268 270 272 273 274 273 273 272 271 271 271 271 272 272 271 270 268 266 263 261 258 255 254 254 254 252 250 247 244 243 241 240 239 237 236 237 237 238 238 238 238 239 239 240 241 241 241 241 241 242 243 243 244 244 245 246 246 247 249 250 251 252 253 253 254 254 255 255 256 256 257 257 258 259 260 260 261 262 262 263 263 264 264 264 264 265
263 263 266 269 270 272 273 272 272 272 271 271 271 271 271 271 270 269 268 266 264 261 258 255 254 254 254 252 250 247 245 242 241 240 239 237 236 236 236 237 238 238 238 239 240 240 241 240 241 241 242 242 242 242 243 243 244 245 246 247 248 249 250 251 252 252 253 254 255 255 256 256 257 257 258 259 259 260 261 261 262 262 262 262 263 264 264 265
261 262 265 268 269 271 272 271 270 271 271 271 271 271 270 270 269 268 268 266 264 262 260 256 254 253 253 253 251 249 246 243 241 240 239 238 237 236 236 236 236 237 238 239 240 240 240 240 240 241 241 242 242 242 242 243 244 244 245 246 247 248 249 250 250 251 252 253 254 255 255 256 256 256 257 258 259 259 260 260 261 261 261 261 261 261 262 262
260 261 264 267 268 270 271 270 269 269 270 270 270 270 269 269 268 267 266 266 264 262 261 256 253 253 252 252 251 249 246 243 241 240 238 237 237 236 235 235 235 236 237 238 239 239 239 239 240 240 241 241 241 242 242 243 243 244 245 246 247 247 248 248 249 250 251 253 254 254 255 255 256 256 257 257 258 258 258 258 259 259 261 261 261 260 259 260
259 260 263 265 267 268 269 269 268 268 268 269 269 269 268 268 268 266 265 265 263 262 261 257 253 252 252 252 250 248 247 245 242 240 238 237 236 236 235 236 236 236 237 237 237 238 239 240 240 240 241 241 241 242 242 243 243 245 245 246 246 246 247 247 248 249 250 252 254 254 254 255 256 255 255 256 256 257 257 258 258 258 259 260 260 259 257 257
258 260 263 265 266 267 267 267 268 267 266 267 268 268 267 267 267 266 264 263 262 260 260 258 253 251 251 251 249 247 247 246 243 240 238 236 235 235 235 235 235 235 236 236 236 237 238 239 240 240 240 240 241 241 241 242 242 243 244 245 245 245 246 246 247 248 249 251 253 253 253 255 257 256 255 255 256 256 256 256 256 256 256 256 258 258 256 254
259 261 263 264 266 267 266 266 267 266 265 265 266 266 266 266 266 265 264 262 261 258 257 257 254 251 249 249 248 246 245 245 243 240 238 236 235 234 234 234 234 235 235 235 235 236 236 237 238 238 239 239 240 240 240 241 241 242 243 244 244 244 244 245 246 247 248 249 252 253 252 254 256 256 255 255 255 255 255 255 254 254 254 253 254 255 254 252
260 261 263 264 265 265 266 265 265 265 264 263 264 265 265 265 265 265 264 261 258 256 255 254 253 251 248 247 246 245 244 243 243 241 238 236 235 234 234 234 234 234 234 234 234 235 235 235 236 237 238 239 239 239 240 240 241 242 242 243 243 243 244 244 245 246 247 248 250 251 251 252 255 256 255 255 255 255 255 255 255 254 254 253 253 253 252 250
260 261 263 264 265 265 265 265 264 263 263 263 263 264 265 264 265 265 263 259 256 255 254 252 252 250 249 247 246 244 243 242 243 241 239 237 236 236 235 234 234 234 234 234 233 234 234 235 235 236 237 239 239 240 240 241 241 242 242 243 244 244 243 244 245 246 248 248 248 250 250 251 255 256 256 256 256 256 256 256 255 255 254 254 253 252 251 248
261 262 263 264 265 265 265 264 263 262 263 263 262 263 264 264 265 264 261 258 256 254 252 251 250 250 249 248 247 245 243 242 241 241 239 238 237 236 236 235 234 235 234 234 233 233 234 235 236 237 238 239 240 240 241 241 242 242 243 243 244 244 244 244 246 247 248 248 248 249 249 251 254 256 256 256 256 256 256 256 255 255 255 254 253 252 251 248
262 262 263 264 265 265 264 264 263 262 262 262 262 262 262 263 263 260 258 257 255 253 252 250 250 249 249 249 248 246 244 242 241 240 239 238 238 237 237 236 236 236 236 235 234 234 235 236 237 237 238 239 240 240 240 241 241 241 242 243 244 245 245 244 245 246 247 248 249 249 249 251 254 256 256 256 256 255 255 255 255 255 255 255 254 253 253 251
262 262 263 263 264 264 264 263 263 262 261 261 261 261 261 262 259 256 255 255 254 252 251 250 249 249 248 248 248 246 245 243 242 240 238 238 238 237 237 236 236 236 237 236 235 234 235 236 236 236 237 238 239 239 240 241 241 242 242 243 243 244 245 244 244 245 246 248 249 249 249 251 253 255 255 255 255 255 255 255 255 255 255 256 256 255 254 253
262 262 262 263 263 263 263 262 261 261 261 260 259 259 259 258 254 254 255 254 253 252 250 249 248 248 247 247 247 246 245 243 242 241 239 237 237 237 236 236 236 236 237 237 236 235 235 236 236 236 237 238 239 239 240 241 242 242 242 242 243 244 245 245 245 246 247 248 249 249 249 250 252 253 254 255 255 255 255 255 255 255 255 255 256 256 255 253
262 262 262 262 262 262 262 261 260 260 260 259 258 257 256 253 251 253 254 254 252 250 248 247 247 247 247 247 247 246 244 243 242 241 240 238 238 238 237 236 236 237 237 237 237 236 236 236 236 237 237 238 239 240 240 241 243 243 243 244 244 245 245 246 246 247 248 248 249 249 249 250 251 253 253 254 254 254 255 256 256 256 256 256 255 255 254 252
262 261 261 261 261 261 260 260 259 258 258 258 257 255 252 250 250 251 253 252 250 248 247 245 245 245 246 246 245 244 244 243 243 242 240 239 238 238 238 238 237 237 237 237 238 238 238 238 237 237 238 238 239 239 240 241 243 244 244 244 245 245 246 246 246 247 248 249 249 249 249 249 250 252 252 252 253 254 255 256 257 257 256 256 255 254 253 252
263 262 261 261 261 260 260 259 258 257 256 256 255 253 250 249 249 249 250 250 248 246 245 244 243 243 244 245 244 243 243 243 242 242 241 239 238 238 238 238 238 237 237 237 238 238 239 240 239 238 238 238 239 239 240 240 242 243 243 243 245 245 245 246 246 246 247 248 248 249 249 249 250 250 251 251 252 254 255 256 256 257 257 256 255 253 252 250
266 264 262 262 261 261 260 259 258 256 255 255 253 251 249 248 247 247 248 248 248 246 244 243 242 242 242 243 244 243 242 242 241 241 240 239 238 238 238 238 238 238 237 237 239 239 239 240 240 238 238 239 239 239 240 240 241 242 243 243 244 245 245 245 245 245 246 246 247 247 248 248 248 248 249 250 251 252 253 254 255 254 254 253 253 252 251 249
267 266 264 262 261 261 260 259 257 256 254 253 251 249 248 248 247 247 247 247 248 247 245 243 242 241 241 242 242 242 241 240 240 240 240 239 238 238 238 238 237 238 238 238 238 239 239 240 241 239 238 239 239 239 240 240 240 242 243 243 243 243 244 245 245 245 246 246 246 245 246 246 246 247 248 249 249 250 250 250 250 248 249 250 250 250 250 249
268 267 265 263 261 260 259 258 257 255 252 251 250 249 248 247 247 246 246 246 246 246 245 243 241 240 240 241 241 241 241 240 239 239 239 238 237 237 238 238 237 237 238 238 238 240 240 240 241 240 239 239 239 239 239 240 240 241 242 243 243 242 243 244 244 245 245 244 244 244 244 244 245 246 247 247 247 247 245 244 245 246 247 248 248 248 249 249
269 268 266 265 263 260 259 258 256 254 251 249 248 247 247 246 246 245 244 244 245 245 244 242 240 238 238 239 240 240 240 239 238 238 238 237 236 236 236 237 237 236 236 237 237 239 240 240 241 241 241 241 241 239 239 240 240 240 240 242 242 242 242 243 242 242 242 242 242 242 242 243 244 245 246 246 246 245 244 243 245 246 246 248 249 249 249 248
271 269 268 266 264 262 260 258 256 255 252 249 247 246 246 245 245 244 243 242 242 242 242 241 239 237 237 237 238 238 238 238 238 238 238 237 237 236 235 236 237 236 236 236 236 238 239 239 240 242 242 242 242 241 240 240 241 240 240 240 241 241 240 241 240 240 240 240 241 241 242 243 245 245 246 246 246 245 245 245 246 247 248 249 249 249 249 249
274 272 270 268 266 264 261 258 256 255 252 249 247 246 245 244 244 243 241 240 240 240 240 240 239 237 236 236 236 237 237 237 238 238 238 238 237 237 236 236 237 237 237 236 236 237 239 239 238 240 242 242 242 242 242 242 241 241 240 239 238 238 238 238 239 239 240 240 241 242 243 244 245 245 246 246 247 246 246 246 247 249 250 250 250 250 250 250
279 276 273 270 268 265 263 260 257 255 252 249 247 245 243 243 243 242 240 238 237 238 238 238 238 237 235 235 235 236 236 237 237 238 238 238 238 238 237 237 237 237 237 237 237 238 240 240 238 238 241 242 242 242 242 242 241 239 238 237 237 237 237 238 238 239 239 240 241 242 243 244 245 246 246 247 248 248 248 247 248 248 249 249 249 249 249 250
285 282 278 274 270 267 264 261 258 255 253 249 247 244 242 241 241 240 239 237 235 235 236 237 237 237 236 235 234 234 235 236 237 237 238 239 239 238 239 239 238 238 237 237 238 238 239 240 239 238 239 241 242 241 241 241 241 241 240 240 239 239 240 240 241 241 241 241 242 242 243 245 247 247 248 249 249 249 249 249 248 248 248 249 249 249 249 249
289 287 284 281 276 270 266 262 258 255 253 250 247 244 241 240 239 238 238 236 234 233 234 235 236 236 236 235 235 234 235 235 237 237 238 239 239 239 239 240 240 239 238 238 238 238 239 240 239 239 239 240 241 242 242 241 242 242 243 243 243 242 243 244 244 244 244 243 243 244 245 246 248 249 250 250 251 251 251 251 251 250 251 252 252 252 251 251
292 290 287 284 280 275 270 265 261 257 253 250 247 244 241 240 238 237 236 235 233 232 233 234 235 235 236 235 235 235 235 235 236 237 238 238 239 239 239 239 240 240 240 239 239 238 239 239 239 239 239 240 241 242 242 242 242 242 243 244 244 244 244 244 245 245 245 244 245 246 246 247 248 250 251 252 252 253 253 254 254 254 254 254 254 254 254 253
301 297 292 287 282 279 274 269 264 259 254 250 247 244 241 240 238 237 236 235 234 232 232 233 234 235 235 236 235 235 235 235 236 237 238 238 238 238 238 239 240 240 240 241 240 240 239 239 240 240 240 241 242 242 243 243 243 243 243 244 244 245 244 244 244 244 244 245 245 246 247 248 248 249 251 252 253 253 254 255 256 256 257 257 257 257 256 256
312 309 304 296 288 283 278 273 266 260 255 251 247 243 240 238 237 236 235 234 233 232 231 232 232 233 234 234 235 235 235 235 235 236 237 238 238 238 239 239 240 240 240 241 241 241 241 240 240 241 241 242 242 243 243 243 243 243 243 243 244 244 244 244 244 244 244 245 245 246 247 248 249 250 251 252 253 254 255 255 256 257 258 260 260 260 260 260
320 318 315 310 302 293 284 276 267 260 255 250 245 241 238 236 236 235 234 233 232 231 231 231 231 231 232 233 233 234 234 234 234 235 236 237 238 239 239 239 239 240 240 241 242 242 242 242 242 242 243 243 243 243 244 244 244 243 242 242 243 243 243 244 244 244 244 245 245 246 247 249 250 251 252 253 254 255 255 256 256 257 258 260 262 263 264 264
326 325 323 320 314 306 295 282 271 262 255 247 242 238 234 233 233 233 232 231 230 230 230 230 230 231 231 232 232 233 233 233 234 234 235 236 237 238 239 239 239 239 239 240 241 242 243 243 244 244 244 245 245 246 246 245 245 245 244 243 243 244 244 245 244 244 244 245 246 246 248 249 250 251 252 253 254 255 256 257 257 258 258 259 262 264 264 264
Height
10652 10652 10652 10651 10651 10650 10650 10650 10649 10649 10649 10649 10650 10650 10651 10651 10652 10652 10653 10654 10655 10656 10657 10659 10661 10663 10665 10667 10669 10671 10673 10676 10679 10682 10685 10688 10690 10694 10698 10700 10703 10707 10710 10713 10715 10716 10717 10718 10720 10723 10727 10730 10733 10736 10738 10740 10742 10744 10746 10746 10747 10750 10754 10759 10763 10766 10768 10770 10771 10771 10771 10772 10774 10775 10777 10778 10777 10777 10778 10779 10779 10780 10781 10781 10781 10781 10780 10778
10645 10644 10644 10644 10643 10643 10642 10642 10642 10641 10641 10641 10641 10641 10641 10642 10642 10643 10644 10644 10645 10647 10648 10650 10652 10654 10656 10658 10660 10662 10664 10667 10670 10673 10676 10678 10682 10685 10689 10691 10694 10698 10701 10703 10705 10707 10709 10710 10712 10716 10719 10723 10726 10728 10730 10732 10734 10736 10737 10738 10740 10743 10748 10752 10756 10759 10761 10762 10762 10762 10763 10764 10765 10767 10769 10770 10769 10769 10769 10769 10771 10772 10774 10774 10774 10773 10771 10768
10637 10637 10636 10636 10635 10635 10634 10634 10634 10633 10633 10633 10632 10632 10633 10633 10633 10634 10634 10635 10636 10638 10639 10641 10642 10644 10646 10648 10651 10653 10656 10659 10662 10664 10666 10670 10673 10676 10680 10683 10685 10689 10692 10694 10696 10699 10701 10703 10705 10708 10711 10715 10718 10721 10722 10724 10726 10728 10728 10730 10733 10737 10741 10745 10749 10752 10753 10753 10754 10754 10755 10756 10757 10759 10761 10762 10760 10762 10762 10761 10764 10766 10766 10766 10766 10764 10761 10761
10630 10629 10629 10628 10628 10627 10627 10626 10626 10625 10625 10624 10624 10624 10624 10625 10625 10625 10626 10627 10628 10629 10630 10632 10633 10635 10637 10639 10642 10644 10648 10651 10654 10656 10658 10661 10665 10668 10671 10674 10677 10681 10684 10686 10688 10691 10693 10695 10697 10701 10704 10707 10711 10713 10715 10716 10718 10719 10719 10722 10727 10730 10733 10738 10742 10744 10744 10745 10746 10746 10747 10748 10750 10750 10753 10754 10752 10755 10756 10754 10757 10758 10757 10758 10756 10755 10753 10756
10622 10622 10621 10620 10620 10619 10619 10618 10618 10617 10617 10616 10616 10616 10616 10617 10617 10617 10618 10618 10620 10621 10622 10623 10625 10626 10628 10630 10633 10636 10639 10643 10646 10647 10649 10653 10656 10659 10662 10666 10669 10672 10675 10678 10680 10683 10685 10687 10689 10693 10697 10700 10703 10706 10708 10708 10710 10710 10711 10715 10719 10723 10726 10730 10734 10736 10736 10737 10738 10739 10739 10740 10742 10744 10746 10747 10746 10749 10750 10747 10749 10750 10749 10749 10747 10746 10747 10751
10614 10614 10613 10613 10612 10611 10611 10610 10610 10609 10609 10609 10608 10608 10609 10609 10609 10610 10610 10610 10611 10612 10614 10615 10616 10618 10620 10622 10624 10627 10631 10636 10638 10639 10641 10644 10647 10650 10654 10658 10661 10664 10668 10670 10673 10675 10678 10680 10682 10686 10690 10693 10695 10698 10701 10700 10701 10702 10704 10709 10712 10716 10719 10722 10726 10727 10727 10729 10731 10732 10732 10733 10736 10738 10739 10740 10740 10742 10741 10739 10741 10741 10740 10740 10739 10739 10741 10745
10607 10606 10606 10605 10604 10604 10603 10603 10602 10602 10602 10602 10601 10601 10602 10602 10602 10602 10602 10603 10603 10604 10605 10607 10608 10610 10611 10614 10616 10619 10624 10628 10629 10630 10633 10636 10639 10642 10646 10650 10654 10657 10660 10663 10665 10668 10670 10673 10676 10679 10682 10686 10688 10691 10693 10692 10693 10694 10697 10702 10705 10708 10711 10715 10717 10717 10718 10721 10724 10726 10726 10728 10730 10732 10733 10733 10733 10733 10733 10732 10732 10732 10732 10732 10732 10733 10736 10738
10599 10599 10598 10598 10597 10597 10596 10596 10595 10595 10595 10595 10595 10595 10595 10595 10595 10595 10595 10595 10596 10596 10597 10599 10600 10602 10603 10606 10609 10612 10616 10619 10620 10622 10625 10628 10631 10635 10638 10643 10646 10649 10652 10655 10658 10661 10664 10667 10669 10672 10675 10679 10680 10683 10685 10684 10686 10687 10690 10695 10698 10700 10703 10706 10707 10708 10711 10715 10719 10720 10721 10723 10725 10725 10725 10725 10725 10725 10725 10725 10724 10724 10725 10725 10726 10728 10729 10730
10592 10592 10591 10591 10590 10590 10589 10589 10589 10588 10588 10588 10588 10588 10588 10588 10587 10587 10587 10587 10588 10589 10590 10591 10593 10594 10596 10599 10601 10606 10609 10610 10612 10615 10617 10620 10624 10627 10631 10635 10638 10642 10645 10648 10651 10654 10657 10660 10663 10665 10668 10671 10672 10675 10677 10677 10678 10680 10684 10689 10690 10692 10696 10699 10699 10701 10705 10710 10713 10714 10715 10718 10719 10718 10717 10717 10717 10718 10718 10718 10717 10717 10717 10719 10721 10721 10721 10721
10585 10585 10584 10584 10584 10583 10583 10582 10582 10582 10582 10582 10582 10581 10581 10581 10580 10580 10580 10580 10581 10582 10583 10584 10585 10587 10590 10592 10595 10599 10601 10602 10605 10607 10609 10613 10617 10620 10624 10627 10631 10634 10638 10641 10645 10648 10651 10654 10656 10657 10659 10662 10664 10668 10669 10669 10672 10674 10678 10682 10682 10684 10690 10692 10692 10695 10700 10704 10707 10708 10709 10712 10713 10710 10708 10709 10710 10711 10711 10710 10710 10710 10711 10713 10714 10714 10713 10712
10579 10578 10578 10578 10577 10577 10576 10576 10576 10576 10576 10575 10575 10575 10574 10574 10573 10573 10573 10574 10575 10576 10576 10577 10578 10581 10583 10586 10589 10592 10593 10595 10598 10600 10602 10605 10609 10613 10616 10620 10624 10627 10631 10635 10638 10641 10644 10646 10647 10648 10652 10655 10657 10661 10662 10664 10667 10668 10671 10674 10674 10678 10684 10685 10686 10689 10693 10697 10700 10702 10704 10706 10706 10702 10701 10703 10703 10703 10702 10702 10702 10703 10705 10707 10706 10706 10705 10705
10573 10572 10572 10572 10571 10571 10570 10570 10570 10570 10569 10569 10569 10568 10568 10567 10567 10566 10567 10568 10569 10569 10570 10571 10572 10574 10577 10580 10583 10584 10586 10589 10591 10594 10595 10597 10602 10605 10609 10613 10617 10621 10624 10627 10630 10633 10636 10637 10639 10642 10646 10648 10651 10655 10658 10660 10661 10662 10665 10667 10668 10673 10677 10679 10681 10683 10687 10690 10693 10696 10697 10698 10698 10695 10694 10696 10696 10695 10694 10694 10696 10697 10699 10699 10698 10699 10697 10698
10566 10566 10566 10566 10565 10565 10564 10564 10564 10563 10563 10563 10562 10562 10562 10561 10561 10560 10561 10562 10563 10563 10564 10565 10566 10568 10570 10573 10575 10577 10581 10584 10585 10586 10587 10590 10594 10598 10601 10606 10611 10615 10617 10619 10622 10625 10628 10630 10633 10637 10640 10642 10646 10651 10653 10654 10654 10655 10658 10660 10662 10666 10671 10674 10676 10678 10681 10684 10686 10689 10690 10689 10689 10688 10688 10689 10688 10688 10687 10687 10689 10690 10691 10691 10692 10692 10691 10693
10560 10560 10560 10560 10559 10559 10559 10558 10558 10558 10557 10557 10556 10556 10555 10555 10555 10555 10556 10556 10556 10557 10557 10559 10560 10562 10564 10566 10568 10572 10575 10577 10577 10579 10580 10584 10587 10590 10594 10599 10604 10608 10609 10611 10615 10618 10621 10624 10628 10631 10634 10637 10641 10644 10646 10647 10648 10649 10651 10653 10657 10660 10664 10668 10670 10672 10674 10677 10679 10681 10680 10679 10680 10682 10681 10682 10682 10681 10681 10681 10683 10683 10683 10684 10686 10685 10685 10687
10555 10554 10554 10554 10554 10553 10553 10552 10552 10552 10551 10551 10550 10550 10550 10550 10550 10550 10550 10551 10551 10551 10552 10553 10554 10556 10558 10560 10563 10566 10569 10570 10570 10572 10574 10577 10580 10584 10588 10593 10597 10600 10602 10605 10608 10611 10614 10618 10621 10625 10628 10632 10635 10638 10640 10641 10642 10643 10644 10647 10651 10653 10657 10661 10664 10666 10669 10671 10671 10672 10671 10669 10673 10675 10674 10676 10676 10675 10675 10675 10676 10676 10676 10678 10680 10679 10679 10681
10549 10548 10548 10548 10548 10547 10547 10547 10547 10546 10546 10545 10545 10544 10544 10545 10545 10545 10545 10545 10545 10546 10546 10547 10548 10550 10553 10554 10557 10560 10561 10562 10564 10566 10568 10571 10574 10578 10582 10587 10590 10593 10595 10598 10601 10604 10607 10611 10615 10619 10622 10626 10629 10632 10634 10636 10636 10637 10638 10641 10645 10646 10650 10653 10657 10661 10663 10664 10663 10663 10663 10661 10664 10666 10667 10670 10670 10669 10669 10668 10669 10670 10670 10672 10673 10672 10673 10675
10543 10543 10543 10542 10542 10542 10541 10541 10541 10541 10540 10540 10539 10539 10539 10540 10540 10540 10539 10540 10540 10540 10541 10541 10542 10545 10547 10549 10552 10554 10554 10555 10558 10560 10562 10565 10569 10573 10576 10580 10583 10586 10588 10591 10594 10597 10601 10605 10609 10613 10616 10620 10622 10625 10628 10630 10630 10631 10632 10635 10638 10640 10643 10646 10651 10655 10656 10656 10656 10656 10655 10653 10655 10658 10661 10663 10663 10662 10661 10660 10662 10663 10664 10666 10666 10666 10667 10668
10537 10537 10537 10537 10537 10536 10536 10536 10536 10535 10535 10534 10534 10534 10535 10535 10535 10535 10534 10534 10535 10535 10535 10536 10537 10540 10542 10543 10545 10547 10547 10549 10552 10555 10557 10560 10564 10567 10570 10574 10576 10579 10582 10585 10588 10591 10595 10598 10602 10606 10609 10612 10615 10618 10621 10623 10624 10625 10627 10629 10631 10633 10636 10639 10644 10647 10648 10649 10649 10649 10647 10646 10647 10651 10655 10655 10654 10654 10654 10654 10655 10656 10658 10660 10660 10661 10661 10661
10531 10532 10532 10531 10531 10531 10530 10530 10530 10530 10530 10529 10529 10529 10530 10530 10530 10529 10529 10529 10529 10529 10530 10531 10533 10535 10536 10538 10540 10541 10542 10544 10547 10549 10552 10556 10559 10561 10565 10567 10570 10573 10576 10579 10582 10585 10588 10592 10595 10598 10602 10606 10609 10612 10615 10618 10619 10620 10621 10622 10623 10625 10628 10632 10636 10639 10640 10641 10642 10642 10640 10641 10644 10646 10647 10647 10646 10647 10647 10646 10647 10649 10653 10654 10654 10656 10655 10655
10525 10526 10526 10526 10526 10526 10525 10525 10525 10525 10525 10524 10524 10525 10525 10525 10525 10524 10524 10524 10524 10524 10525 10526 10528 10530 10531 10532 10534 10535 10536 10539 10542 10544 10547 10550 10553 10556 10559 10562 10565 10567 10570 10573 10575 10578 10582 10585 10588 10592 10597 10601 10603 10605 10608 10610 10612 10612 10613 10614 10616 10617 10620 10626 10630 10631 10632 10633 10634 10635 10635 10637 10640 10639 10639 10639 10639 10639 10640 10640 10641 10644 10646 10647 10648 10650 10648 10648
10519 10520 10520 10520 10520 10520 10520 10520 10519 10520 10520 10520 10520 10520 10521 10520 10520 10519 10519 10519 10519 10519 10520 10522 10523 10525 10526 10527 10529 10530 10531 10534 10536 10539 10542 10545 10548 10551 10553 10556 10559 10562 10564 10567 10569 10572 10575 10579 10583 10588 10592 10594 10595 10597 10600 10603 10605 10605 10606 10608 10610 10611 10615 10620 10623 10624 10625 10626 10627 10628 10631 10633 10633 10632 10632 10633 10632 10632 10633 10635 10636 10638 10639 10641 10642 10643 10642 10642
10513 10514 10515 10515 10515 10515 10515 10515 10514 10514 10515 10515 10515 10516 10516 10516 10515 10514 10514 10515 10514 10514 10516 10517 10519 10520 10520 10522 10523 10525 10526 10528 10531 10533 10536 10540 10543 10545 10548 10551 10554 10556 10558 10560 10563 10566 10570 10574 10579 10582 10584 10586 10588 10591 10594 10597 10598 10599 10600 10602 10603 10606 10610 10614 10617 10618 10618 10619 10620 10622 10625 10627 10626 10626 10626 10625 10625 10626 10627 10629 10630 10631 10633 10634 10635 10635 10635 10636
10506 10508 10509 10509 10509 10509 10510 10510 10509 10509 10510 10509 10510 10511 10512 10511 10510 10509 10509 10510 10510 10510 10511 10513 10514 10515 10515 10516 10518 10519 10521 10523 10525 10527 10530 10534 10538 10540 10543 10546 10549 10551 10553 10555 10558 10562 10566 10570 10573 10574 10577 10580 10583 10585 10588 10590 10591 10593 10594 10596 10598 10602 10606 10608 10610 10612 10612 10612 10614 10616 10619 10620 10620 10620 10620 10619 10620 10620 10621 10623 10624 10625 10627 10628 10628 10628 10630 10631
10500 10502 10503 10504 10504 10504 10504 10505 10504 10504 10504 10504 10505 10507 10507 10507 10505 10504 10504 10506 10506 10505 10506 10509 10510 10510 10510 10511 10513 10515 10516 10518 10520 10522 10526 10529 10532 10535 10538 10541 10544 10545 10547 10550 10554 10558 10562 10564 10566 10568 10572 10575 10577 10580 10582 10584 10585 10587 10589 10591 10594 10598 10600 10603 10604 10605 10606 10606 10608 10611 10613 10614 10614 10614 10614 10613 10614 10615 10616 10617 10617 10619 10621 10622 10622 10623 10624 10626
10494 10496 10497 10498 10498 10498 10498 10499 10499 10499 10499 10499 10500 10502 10503 10502 10500 10500 10500 10501 10502 10501 10502 10505 10506 10505 10505 10506 10508 10511 10512 10513 10515 10518 10521 10524 10528 10531 10534 10536 10538 10540 10542 10546 10550 10553 10556 10557 10560 10563 10566 10568 10571 10574 10576 10578 10580 10581 10583 10586 10589 10593 10595 10597 10598 10600 10601 10600 10602 10606 10607 10607 10607 10607 10607 10607 10608 10609 10610 10611 10612 10613 10615 10616 10616 10618 10619 10622
10488 10490 10491 10492 10492 10492 10492 10493 10494 10494 10494 10493 10495 10496 10498 10497 10495 10495 10495 10495 10497 10497 10497 10500 10501 10500 10501 10502 10504 10506 10506 10508 10511 10514 10517 10520 10523 10526 10528 10530 10532 10535 10538 10542 10545 10548 10549 10552 10555 10558 10560 10563 10565 10568 10570 10572 10574 10576 10579 10581 10584 10588 10590 10592 10593 10595 10595 10594 10597 10600 10601 10600 10600 10601 10602 10601 10602 10603 10604 10605 10607 10608 10609 10611 10612 10613 10615 10617
10482 10484 10485 10486 10486 10487 10487 10487 10488 10489 10489 10488 10489 10491 10492 10492 10490 10490 10491 10490 10493 10494 10493 10495 10496 10496 10496 10497 10499 10501 10502 10504 10507 10509 10512 10515 10517 10520 10522 10525 10527 10530 10534 10537 10540 10541 10544 10547 10551 10553 10555 10557 10559 10563 10565 10567 10569 10571 10574 10576 10579 10582 10585 10586 10588 10589 10590 10590 10592 10594 10595 10594 10594 10595 10595 10595 10596 10597 10598 10599 10602 10604 10605 10606 10607 10608 10610 10613
10477 10478 10479 10479 10480 10480 10481 10481 10482 10483 10483 10482 10483 10485 10487 10487 10485 10485 10486 10486 10488 10489 10489 10490 10491 10492 10492 10492 10494 10496 10498 10500 10502 10504 10507 10510 10512 10514 10517 10519 10522 10526 10529 10531 10534 10536 10540 10543 10545 10547 10549 10551 10554 10557 10559 10562 10564 10566 10568 10571 10573 10577 10579 10581 10582 10584 10584 10585 10586 10587 10590 10589 10587 10588 10589 10590 10590 10591 10593 10594 10597 10599 10600 10602 10602 10603 10606 10609
10471 10472 10472 10473 10473 10473 10474 10475 10476 10476 10477 10477 10477 10479 10481 10482 10480 10481 10481 10481 10482 10484 10485 10485 10486 10487 10487 10487 10489 10491 10493 10495 10496 10499 10503 10505 10506 10508 10510 10513 10517 10521 10523 10525 10529 10532 10534 10537 10539 10541 10543 10545 10548 10551 10554 10556 10559 10561 10563 10565 10568 10571 10574 10575 10577 10578 10579 10581 10580 10581 10584 10584 10581 10581 10583 10584 10585 10586 10588 10589 10590 10592 10594 10597 10597 10599 10602 10605
10465 10465 10465 10466 10466 10467 10467 10470 10471 10469 10469 10471 10472 10473 10476 10477 10476 10476 10476 10475 10476 10478 10480 10481 10481 10481 10482 10483 10484 10486 10489 10490 10491 10495 10498 10499 10500 10503 10505 10509 10513 10515 10517 10520 10524 10526 10528 10531 10533 10535 10537 10539 10542 10546 10548 10551 10553 10556 10558 10560 10563 10566 10568 10570 10571 10572 10574 10576 10575 10576 10579 10579 10576 10575 10577 10579 10581 10581 10582 10583 10584 10586 10588 10590 10592 10594 10597 10601
10459 10459 10459 10458 10459 10460 10461 10463 10464 10463 10463 10465 10467 10468 10470 10471 10472 10472 10469 10467 10470 10473 10475 10476 10476 10476 10477 10478 10480 10482 10484 10486 10487 10490 10493 10494 10495 10498 10501 10504 10507 10509 10511 10515 10518 10520 10523 10525 10527 10529 10531 10534 10537 10541 10543 10546 10548 10551 10553 10555 10558 10561 10563 10565 10566 10568 10571 10571 10570 10571 10575 10575 10571 10570 10572 10574 10575 10576 10577 10578 10579 10580 10582 10584 10586 10589 10592 10596
10452 10452 10452 10451 10452 10453 10455 10456 10456 10457 10458 10458 10461 10463 10464 10466 10468 10466 10460 10460 10465 10469 10470 10471 10471 10472 10473 10474 10475 10478 10480 10481 10483 10485 10488 10489 10490 10493 10496 10499 10501 10503 10505 10509 10512 10515 10517 10520 10522 10524 10527 10529 10533 10536 10538 10541 10543 10545 10547 10550 10554 10555 10558 10561 10562 10564 10566 10564 10565 10568 10570 10570 10566 10565 10568 10569 10569 10570 10572 10572 10573 10575 10577 10579 10581 10583 10586 10590
10445 10445 10445 10444 10444 10446 10448 10449 10449 10450 10451 10452 10455 10457 10458 10462 10463 10457 10451 10454 10461 10463 10464 10466 10466 10467 10468 10469 10471 10473 10475 10477 10479 10480 10483 10484 10485 10488 10491 10494 10496 10498 10500 10503 10508 10511 10513 10515 10517 10520 10522 10524 10527 10530 10532 10534 10536 10539 10542 10546 10549 10549 10552 10556 10557 10559 10559 10558 10561 10563 10565 10565 10562 10561 10563 10563 10563 10565 10566 10567 10569 10570 10572 10574 10576 10578 10581 10585
10438 10438 10438 10437 10437 10438 10440 10441 10442 10443 10443 10445 10448 10450 10453 10457 10454 10446 10443 10449 10455 10458 10459 10460 10461 10463 10464 10465 10467 10468 10471 10473 10474 10476 10477 10479 10481 10483 10486 10488 10490 10492 10494 10497 10502 10505 10507 10509 10511 10514 10516 10519 10521 10524 10526 10528 10530 10534 10538 10540 10542 10543 10546 10549 10551 10552 10553 10553 10556 10558 10560 10561 10558 10556 10556 10557 10557 10559 10560 10562 10564 10566 10568 10569 10571 10574 10576 10579
10431 10430 10430 10430 10430 10430 10432 10433 10434 10435 10435 10438 10441 10444 10448 10449 10443 10436 10437 10444 10449 10452 10454 10455 10456 10457 10459 10461 10462 10464 10466 10468 10469 10470 10473 10475 10476 10478 10480 10483 10485 10487 10489 10492 10496 10499 10501 10503 10505 10508 10511 10513 10515 10518 10521 10523 10524 10528 10532 10534 10536 10538 10539 10542 10545 10546 10547 10548 10550 10553 10555 10555 10552 10550 10551 10551 10552 10553 10555 10557 10559 10561 10563 10565 10567 10569 10571 10573
10423 10422 10422 10422 10422 10422 10423 10424 10426 10428 10428 10430 10433 10438 10441 10437 10432 10430 10433 10438 10443 10446 10447 10448 10451 10452 10454 10456 10457 10459 10461 10462 10464 10466 10468 10470 10471 10473 10475 10478 10480 10482 10484 10487 10489 10492 10495 10497 10499 10502 10505 10508 10510 10513 10516 10517 10519 10522 10526 10528 10529 10532 10534 10537 10539 10540 10541 10543 10544 10546 10548 10548 10546 10545 10545 10546 10547 10548 10550 10552 10555 10557 10559 10560 10562 10563 10565 10567
10414 10415 10414 10414 10414 10415 10415 10416 10418 10420 10421 10422 10426 10431 10430 10426 10425 10426 10427 10431 10436 10438 10440 10442 10445 10447 10449 10450 10451 10454 10456 10457 10459 10461 10463 10465 10466 10468 10470 10472 10475 10477 10480 10482 10484 10487 10489 10491 10494 10497 10500 10503 10505 10507 10510 10512 10514 10517 10520 10521 10523 10526 10529 10531 10532 10534 10535 10536 10538 10539 10541 10541 10541 10540 10540 10541 10542 10544 10546 10548 10550 10552 10554 10555 10557 10558 10559 10561
10406 10407 10406 10406 10406 10407 10407 10408 10410 10412 10413 10415 10419 10421 10419 10417 10418 10419 10420 10424 10428 10431 10433 10436 10440 10442 10444 10444 10445 10448 10450 10452 10454 10456 10458 10459 10461 10463 10465 10467 10470 10472 10475 10477 10479 10482 10484 10485 10488 10492 10494 10496 10499 10501 10505 10507 10509 10510 10513 10515 10517 10520 10523 10524 10525 10528 10529 10530 10531 10533 10534 10535 10535 10533 10533 10535 10538 10540 10542 10544 10546 10547 10548 10550 10551 10552 10554 10555
10397 10398 10398 10398 10398 10398 10398 10399 10401 10403 10405 10408 10409 10409 10409 10409 10410 10412 10414 10417 10420 10424 10427 10431 10435 10437 10438 10438 10440 10442 10445 10447 10450 10451 10452 10454 10456 10458 10459 10461 10464 10466 10469 10472 10474 10476 10478 10479 10482 10485 10488 10491 10493 10496 10499 10501 10503 10504 10507 10510 10512 10514 10516 10517 10520 10522 10523 10524 10525 10526 10528 10529 10528 10526 10527 10531 10533 10536 10537 10539 10541 10543 10543 10544 10545 10546 10547 10549
10387 10388 10388 10389 10389 10389 10388 10390 10392 10394 10397 10399 10398 10399 10400 10400 10402 10405 10408 10411 10414 10418 10421 10425 10428 10430 10432 10433 10434 10436 10439 10442 10444 10445 10447 10449 10451 10453 10454 10455 10459 10461 10464 10466 10469 10470 10472 10474 10475 10479 10483 10485 10487 10491 10493 10495 10497 10498 10501 10504 10506 10508 10509 10511 10514 10516 10517 10518 10519 10520 10521 10521 10520 10520 10522 10526 10528 10530 10532 10534 10536 10537 10538 10538 10540 10540 10541 10542
10378 10378 10378 10378 10380 10380 10379 10380 10382 10384 10387 10389 10389 10390 10391 10392 10394 10398 10402 10405 10407 10411 10415 10418 10421 10424 10426 10427 10428 10431 10433 10436 10438 10440 10441 10443 10446 10447 10448 10450 10453 10456 10457 10460 10463 10464 10467 10469 10470 10473 10476 10478 10481 10485 10486 10488 10491 10494 10496 10497 10499 10502 10503 10505 10508 10510 10511 10512 10513 10514 10515 10513 10513 10514 10517 10519 10522 10525 10526 10528 10529 10530 10531 10533 10534 10535 10536 10537
10370 10369 10368 10368 10369 10370 10370 10370 10371 10374 10377 10379 10380 10381 10382 10383 10386 10390 10395 10398 10401 10404 10407 10410 10413 10417 10419 10420 10422 10425 10427 10429 10432 10433 10435 10437 10439 10441 10443 10445 10447 10450 10452 10454 10457 10459 10461 10463 10464 10468 10471 10473 10476 10479 10480 10483 10485 10487 10490 10491 10493 10496 10498 10500 10502 10503 10504 10505 10507 10508 10507 10507 10507 10509 10511 10512 10515 10518 10520 10522 10523 10523 10524 10526 10528 10529 10530 10531
10361 10359 10359 10359 10359 10360 10360 10361 10361 10363 10367 10369 10371 10371 10373 10375 10377 10382 10387 10391 10394 10397 10399 10402 10405 10409 10411 10413 10415 10418 10420 10423 10425 10426 10428 10431 10433 10435 10438 10439 10441 10443 10446 10448 10451 10453 10454 10457 10460 10463 10465 10467 10470 10472 10475 10478 10479 10481 10484 10486 10488 10490 10492 10494 10495 10496 10497 10499 10501 10501 10501 10501 10502 10503 10504 10506 10508 10511 10513 10515 10516 10516 10517 10520 10522 10523 10524 10525
10352 10351 10350 10349 10349 10349 10350 10350 10351 10353 10356 10359 10361 10363 10365 10367 10369 10373 10378 10383 10386 10389 10391 10393 10397 10400 10403 10406 10408 10411 10414 10416 10418 10420 10422 10425 10427 10430 10432 10434 10435 10438 10441 10443 10445 10447 10448 10451 10455 10457 10459 10461 10464 10466 10469 10472 10473 10475 10478 10479 10481 10484 10486 10487 10488 10490 10492 10494 10495 10495 10495 10495 10496 10496 10498 10499 10501 10504 10506 10509 10510 10510 10511 10513 10515 10516 10518 10519
10344 10342 10341 10340 10340 10340 10339 10340 10341 10343 10345 10348 10351 10353 10356 10358 10360 10364 10369 10375 10378 10381 10383 10386 10389 10392 10395 10398 10401 10404 10407 10410 10412 10414 10416 10419 10422 10425 10427 10428 10430 10432 10435 10438 10440 10441 10442 10445 10449 10452 10453 10455 10457 10460 10463 10465 10466 10468 10470 10472 10474 10477 10479 10481 10483 10484 10486 10489 10489 10489 10489 10489 10489 10490 10492 10493 10494 10497 10499 10501 10503 10504 10505 10506 10508 10510 10511 10513
10336 10335 10333 10333 10332 10332 10331 10331 10332 10334 10336 10338 10340 10343 10346 10349 10351 10355 10360 10366 10370 10372 10375 10377 10380 10384 10387 10391 10394 10397 10400 10403 10405 10408 10411 10413 10417 10420 10421 10423 10425 10427 10430 10432 10433 10436 10437 10439 10442 10445 10447 10447 10450 10453 10456 10457 10459 10462 10464 10466 10469 10472 10473 10475 10477 10479 10481 10483 10483 10482 10482 10482 10483 10485 10486 10487 10488 10489 10491 10493 10496 10497 10498 10499 10500 10502 10504 10506
10331 10328 10327 10325 10324 10324 10323 10324 10325 10325 10327 10329 10331 10334 10337 10340 10342 10346 10351 10356 10361 10364 10367 10369 10372 10376 10380 10383 10387 10390 10394 10396 10399 10402 10405 10408 10411 10414 10416 10417 10419 10421 10423 10425 10427 10430 10431 10433 10436 10438 10439 10441 10444 10446 10448 10451 10454 10457 10459 10461 10464 10466 10468 10470 10472 10473 10476 10477 10476 10475 10477 10477 10477 10479 10479 10481 10482 10483 10484 10486 10488 10490 10490 10491 10493 10494 10497 10499
10326 10324 10322 10319 10317 10316 10316 10317 10318 10318 10319 10321 10324 10326 10329 10331 10334 10338 10342 10347 10352 10356 10359 10362 10365 10369 10372 10376 10380 10384 10387 10390 10393 10396 10400 10402 10405 10407 10410 10411 10413 10416 10417 10419 10421 10423 10424 10427 10429 10431 10432 10434 10437 10439 10441 10444 10447 10450 10453 10455 10457 10460 10462 10464 10465 10467 10469 10469 10468 10469 10470 10471 10471 10472 10473 10474 10475 10476 10477 10479 10481 10482 10483 10484 10485 10486 10489 10491
10321 10319 10317 10315 10312 10310 10310 10311 10312 10312 10313 10315 10317 10319 10322 10325 10327 10331 10334 10339 10344 10349 10352 10355 10358 10362 10366 10369 10373 10377 10380 10384 10387 10390 10393 10396 10398 10401 10403 10405 10407 10410 10412 10413 10415 10416 10418 10420 10422 10424 10426 10428 10430 10432 10435 10437 10440 10443 10446 10448 10450 10452 10454 10456 10458 10459 10460 10461 10461 10462 10463 10463 10465 10465 10466 10467 10468 10469 10470 10472 10474 10475 10476 10477 10477 10479 10481 10483
10316 10314 10312 10310 10308 10306 10305 10306 10306 10306 10307 10309 10311 10313 10316 10318 10321 10324 10328 10332 10337 10341 10345 10348 10351 10355 10358 10362 10366 10370 10374 10378 10381 10383 10386 10388 10391 10394 10397 10399 10402 10404 10406 10408 10409 10410 10412 10414 10416 10417 10419 10422 10424 10425 10427 10430 10433 10435 10438 10440 10442 10444 10446 10448 10450 10451 10452 10453 10454 10455 10455 10456 10457 10458 10459 10460 10461 10462 10463 10465 10467 10469 10470 10470 10470 10471 10474 10476
10313 10310 10307 10305 10303 10302 10301 10301 10301 10301 10302 10304 10306 10308 10310 10313 10315 10318 10321 10325 10330 10334 10337 10340 10344 10347 10350 10355 10359 10363 10367 10371 10374 10376 10379 10382 10385 10388 10390 10393 10395 10397 10400 10402 10403 10404 10406 10408 10410 10411 10413 10415 10417 10418 10421 10423 10425 10427 10430 10433 10434 10436 10438 10440 10441 10443 10445 10446 10447 10448 10448 10448 10449 10451 10452 10453 10454 10455 10457 10458 10460 10463 10465 10464 10463 10466 10468 10468
10310 10307 10305 10302 10300 10298 10297 10297 10296 10297 10298 10299 10301 10303 10305 10307 10310 10313 10316 10319 10322 10326 10329 10333 10336 10340 10343 10348 10352 10355 10359 10363 10366 10369 10373 10375 10378 10380 10383 10385 10388 10391 10394 10396 10397 10398 10400 10402 10403 10405 10407 10409 10410 10412 10414 10415 10418 10421 10423 10425 10426 10428 10430 10431 10433 10435 10436 10438 10439 10440 10440 10441 10442 10444 10445 10446 10447 10448 10449 10452 10454 10457 10459 10459 10459 10460 10460 10459